Sterling Muni, Sterling, CO, CO

7:32 PM MDT on March 26, 2017 (GMT -0600)
Sterling Municipal

Weather History for KSTK - December, 2012

Change the Weather History Date:

Friday, December 21, 2012

  Actual Average Record
Temperature  
Mean Temperature 26 °F -  
Max Temperature 41 °F 36 °F 42 °F (2014)
Min Temperature 10 °F 10 °F 5 °F (2013)
Degree Days  
Heating Degree Days 40    
Moisture  
Dew Point 15 °F    
Average Humidity 75    
Maximum Humidity 93    
Minimum Humidity 52    
Precipitation  
Precipitation 0.00 in - - ()
Sea Level Pressure  
Sea Level Pressure 30.12 in    
Wind  
Wind Speed 6 mph ()    
Max Wind Speed 14 mph    
Max Gust Speed -    
Visibility 10.0 miles    
Events      
Averages and records for this station are not official NWS values.
T = Trace of Precipitation, MM = Missing Value Source: Averaged Metar Reports

Daily Weather History Graph

Daily Weather History Graph

Search for Another Location

Airport or City:

Trip Planner

Search our weather history database for the weather conditions in past years. The results will help you decide how hot, cold, wet, or windy it might be!

Date:

Astronomy

Dec. 21, 2012 Rise Set
Actual Time 7:13 AM MST 4:29 PM MST
Civil Twilight 6:42 AM MST 5:00 PM MST
Nautical Twilight 6:08 AM MST 5:34 PM MST
Astronomical Twilight 5:34 AM MST 6:08 PM MST
Moon 12:18 PM MST (12/21) 1:01 AM MST (12/21)
Length of Visible Light 10h 17m
Length of Day
9h 15m
Waxing Gibbous, 65% of the Moon is Illuminated
Dec 21
Waxing Gibbous
Dec 28
Full
Jan 4
Last Quarter
Jan 11
New
Jan 18
First Quarter

Hourly Weather History & Observations

Time (MST) Temp. Windchill Dew Point Humidity Pressure Visibility Wind Dir Wind Speed Gust Speed Precip Events Conditions
12:15 AM 14.0 °F 2.0 °F 8.6 °F 79% 30.18 in 10.0 mi SW 9.2 mph - N/A   Clear
12:35 AM 14.0 °F 3.9 °F 8.6 °F 79% 30.18 in 10.0 mi SSW 6.9 mph - N/A   Clear
12:55 AM 15.8 °F 5.1 °F 10.4 °F 79% 30.18 in 10.0 mi SSW 8.1 mph - N/A   Clear
1:15 AM 14.0 °F 2.0 °F 8.6 °F 79% 30.18 in 10.0 mi SSW 9.2 mph - N/A   Clear
1:35 AM 14.0 °F 6.5 °F 8.6 °F 79% 30.18 in 10.0 mi South 4.6 mph - N/A   Clear
1:55 AM 14.0 °F 6.5 °F 8.6 °F 79% 30.18 in 10.0 mi SW 4.6 mph - N/A   Clear
2:15 AM 14.0 °F 5.1 °F 8.6 °F 79% 30.19 in 10.0 mi SW 5.8 mph - N/A   Clear
2:35 AM 14.0 °F 6.5 °F 8.6 °F 79% 30.20 in 10.0 mi South 4.6 mph - N/A   Clear
2:55 AM 10.4 °F -1.5 °F 6.8 °F 85% 30.18 in 10.0 mi South 8.1 mph - N/A   Clear
3:15 AM 10.4 °F - 6.8 °F 85% 30.18 in 10.0 mi Calm Calm - N/A   Clear
3:35 AM 12.2 °F 6.1 °F 6.8 °F 79% 30.19 in 10.0 mi SSW 3.5 mph - N/A   Clear
3:55 AM 10.4 °F -1.5 °F 6.8 °F 85% 30.18 in 10.0 mi SSW 8.1 mph - N/A   Clear
4:15 AM 10.4 °F -1.5 °F 6.8 °F 85% 30.18 in 10.0 mi South 8.1 mph - N/A   Clear
4:35 AM 10.4 °F 2.2 °F 6.8 °F 85% 30.18 in 10.0 mi SSW 4.6 mph - N/A   Clear
4:55 AM 10.4 °F -1.5 °F 6.8 °F 85% 30.18 in 10.0 mi South 8.1 mph - N/A   Clear
5:15 AM 10.4 °F -1.5 °F 6.8 °F 85% 30.18 in 10.0 mi SSW 8.1 mph - N/A   Clear
5:35 AM 14.0 °F 5.1 °F 8.6 °F 79% 30.18 in 10.0 mi SSW 5.8 mph - N/A   Clear
5:55 AM 14.0 °F 2.9 °F 8.6 °F 79% 30.18 in 10.0 mi SSW 8.1 mph - N/A   Clear
6:15 AM 10.4 °F 2.2 °F 5.0 °F 79% 30.19 in 10.0 mi South 4.6 mph - N/A   Clear
6:35 AM 10.4 °F -1.5 °F 5.0 °F 79% 30.19 in 10.0 mi SSW 8.1 mph - N/A   Clear
6:55 AM 10.4 °F -0.4 °F 6.8 °F 85% 30.20 in 10.0 mi SSW 6.9 mph - N/A   Clear
7:15 AM 14.0 °F 8.2 °F 8.6 °F 79% 30.20 in 10.0 mi SSW 3.5 mph - N/A   Clear
7:35 AM 12.2 °F 2.9 °F 8.6 °F 85% 30.19 in 10.0 mi SW 5.8 mph - N/A   Clear
7:55 AM 12.2 °F 4.3 °F 8.6 °F 85% 30.19 in 10.0 mi South 4.6 mph - N/A   Clear
8:15 AM 15.8 °F 1.4 °F 10.4 °F 79% 30.18 in 10.0 mi SW 13.8 mph - N/A   Clear
8:35 AM 17.6 °F 5.7 °F 8.6 °F 68% 30.18 in 10.0 mi SSW 10.4 mph - N/A   Clear
8:55 AM 19.4 °F 7.2 °F 10.4 °F 68% 30.20 in 10.0 mi SSW 11.5 mph - N/A   Clear
9:15 AM 19.4 °F 7.9 °F 10.4 °F 68% 30.19 in 10.0 mi SW 10.4 mph - N/A   Clear
9:35 AM 21.2 °F 10.1 °F 12.2 °F 68% 30.19 in 10.0 mi SW 10.4 mph - N/A   Clear
9:55 AM 24.8 °F 14.0 °F 14.0 °F 64% 30.18 in 10.0 mi SW 11.5 mph - N/A   Clear
10:15 AM 28.4 °F 18.0 °F 17.6 °F 64% 30.17 in 10.0 mi SSW 12.7 mph - N/A   Clear
10:35 AM 28.4 °F 17.5 °F 17.6 °F 64% 30.16 in 10.0 mi SSW 13.8 mph - N/A   Clear
10:55 AM 32.0 °F 22.5 °F 17.6 °F 55% 30.16 in 10.0 mi SSW 12.7 mph - N/A   Clear
11:15 AM 32.0 °F 22.1 °F 19.4 °F 60% 30.14 in 10.0 mi SSW 13.8 mph - N/A   Clear
11:35 AM 33.8 °F 26.4 °F 19.4 °F 56% 30.13 in 10.0 mi SSW 9.2 mph - N/A   Clear
11:55 AM 35.6 °F 28.0 °F 21.2 °F 56% 30.12 in 10.0 mi SW 10.4 mph - N/A   Clear
12:15 PM 37.4 °F 32.8 °F 23.0 °F 56% 30.11 in 10.0 mi SW 5.8 mph - N/A   Clear
12:35 PM 37.4 °F 31.4 °F 21.2 °F 52% 30.10 in 10.0 mi SSW 8.1 mph - N/A   Clear
12:55 PM 37.4 °F 32.1 °F 23.0 °F 56% 30.09 in 10.0 mi SSW 6.9 mph - N/A   Clear
1:15 PM 37.4 °F 31.4 °F 23.0 °F 56% 30.08 in 10.0 mi South 8.1 mph - N/A   Clear
1:35 PM 37.4 °F 32.1 °F 23.0 °F 56% 30.08 in 10.0 mi SSW 6.9 mph - N/A   Clear
1:55 PM 41.0 °F 37.1 °F 24.8 °F 53% 30.07 in 10.0 mi South 5.8 mph - N/A   Clear
2:15 PM 39.2 °F 34.2 °F 26.6 °F 61% 30.07 in 10.0 mi SSW 6.9 mph - N/A   Clear
2:35 PM 37.4 °F 32.8 °F 24.8 °F 60% 30.07 in 10.0 mi SSW 5.8 mph - N/A   Clear
2:55 PM 37.4 °F 31.4 °F 24.8 °F 60% 30.06 in 10.0 mi SSW 8.1 mph - N/A   Clear
3:15 PM 37.4 °F 34.9 °F 24.8 °F 60% 30.06 in 10.0 mi SSW 3.5 mph - N/A   Clear
3:35 PM 37.4 °F 32.8 °F 26.6 °F 65% 30.06 in 10.0 mi South 5.8 mph - N/A   Clear
3:55 PM 37.4 °F 34.9 °F 26.6 °F 65% 30.06 in 10.0 mi SSE 3.5 mph - N/A   Clear
4:15 PM 35.6 °F 32.8 °F 26.6 °F 70% 30.06 in 10.0 mi SSE 3.5 mph - N/A   Clear
4:35 PM 35.6 °F 31.7 °F 24.8 °F 65% 30.06 in 10.0 mi South 4.6 mph - N/A   Clear
4:55 PM 33.8 °F 30.8 °F 23.0 °F 65% 30.06 in 10.0 mi South 3.5 mph - N/A   Clear
5:15 PM 30.2 °F 25.4 °F 23.0 °F 75% 30.05 in 10.0 mi SSW 4.6 mph - N/A   Clear
5:35 PM 30.2 °F - 23.0 °F 75% 30.06 in 10.0 mi Calm Calm - N/A   Clear
5:55 PM 28.4 °F 24.6 °F 21.2 °F 74% 30.06 in 10.0 mi SSW 3.5 mph - N/A   Clear
6:15 PM 26.6 °F 20.0 °F 21.2 °F 80% 30.06 in 10.0 mi SW 5.8 mph - N/A   Clear
6:35 PM 23.0 °F 14.7 °F 19.4 °F 86% 30.06 in 10.0 mi SW 6.9 mph - N/A   Clear
6:55 PM 26.6 °F 22.6 °F 21.2 °F 80% 30.06 in 10.0 mi WSW 3.5 mph - N/A   Clear
7:15 PM 26.6 °F - 19.4 °F 74% 30.06 in 10.0 mi Calm Calm - N/A   Clear
7:35 PM 23.0 °F 14.7 °F 19.4 °F 86% 30.06 in 10.0 mi West 6.9 mph - N/A   Clear
7:55 PM 21.2 °F 10.9 °F 17.6 °F 86% 30.05 in 10.0 mi WSW 9.2 mph - N/A   Clear
8:15 PM 21.2 °F 13.6 °F 17.6 °F 86% 30.05 in 10.0 mi WSW 5.8 mph - N/A   Clear
8:35 PM 19.4 °F 9.5 °F 15.8 °F 86% 30.05 in 10.0 mi West 8.1 mph - N/A   Clear
8:55 PM 19.4 °F 14.3 °F 17.6 °F 93% 30.04 in 10.0 mi SSW 3.5 mph - N/A   Clear
9:15 PM 17.6 °F - 14.0 °F 86% 30.04 in 10.0 mi Calm Calm - N/A   Clear
9:35 PM 14.0 °F 6.5 °F 12.2 °F 93% 30.04 in 10.0 mi South 4.6 mph - N/A   Clear
9:55 PM 15.8 °F 7.2 °F 14.0 °F 93% 30.04 in 10.0 mi WSW 5.8 mph - N/A   Clear
10:15 PM 17.6 °F 10.7 °F 14.0 °F 86% 30.03 in 10.0 mi SW 4.6 mph - N/A   Clear
10:35 PM 19.4 °F - 15.8 °F 86% 30.03 in 10.0 mi Calm Calm - N/A   Clear
10:55 PM 15.8 °F 6.1 °F 14.0 °F 93% 30.04 in 10.0 mi SSW 6.9 mph - N/A   Clear
11:15 PM 15.8 °F 8.6 °F 14.0 °F 93% 30.04 in 10.0 mi SW 4.6 mph - N/A   Clear
11:35 PM 15.8 °F 7.2 °F 14.0 °F 93% 30.04 in 10.0 mi SSW 5.8 mph - N/A   Clear
11:55 PM 15.8 °F 8.6 °F 14.0 °F 93% 30.04 in 10.0 mi SW 4.6 mph - N/A   Clear